Regional Weather Roundup
Issued by NWS Bismarck, ND

Home | Current Version | Previous Version | Text Only | Print | Product List | Glossary On
Versions: 1 2 3 4 5 6 7 8 9 10 11 12 13 14 15 16 17 18 19 20 21 22 23 24 25 26 27 28 29 30 31 32 33 34 35 36 37 38 39 40 41 42 43 44 45 46 47 48 49 50
000
ASUS43 KBIS 291710
RWRBIS

NWR BROADCAST TEXT
NATIONAL WEATHER SERVICE BISMARCK ND
1200 PM CDT WED MAR 29 2017

NOTE: "FAIR" INDICATES FEW OR NO CLOUDS BELOW 12,000 FEET WITH NO
SIGNIFICANT WEATHER AND/OR OBSTRUCTIONS TO VISIBILITY.


CITY           SKY/WX    TMP DP  RH WIND       PRES   REMARKS
WILLISTON      FAIR      51  41  68 S12       29.99F
MINOT          PTSUNNY   54  43  66 S12       30.02F
MINOT AFB      CLOUDY    50  44  79 SW9       30.01F
BISMARCK       FAIR      57  41  55 S7        30.10F
DICKINSON      FAIR      48  42  80 S12       30.04F
GARRISON         N/A     51  42  71 S9        30.05F
HETTINGER ARPT FAIR      51  41  68 SW9       30.08F
JAMESTOWN      FAIR      56  41  57 S12       30.11F
HAZEN          FAIR      57  41  54 SW17G23   30.07F
LINTON           N/A     48  43  81 S6        30.13S
MANDAN         FAIR      54  39  58 S14       30.09F
STANLEY        FAIR      48  48 100 S9        30.03F
TIOGA          FAIR      48  48 100 SW13      30.00F
WATFORD CITY   FAIR      52  45  76 SW12      30.01F
$$

CITY           SKY/WX    TMP DP  RH WIND       PRES   REMARKS
GRAND FORKS    FAIR      50  41  71 S9        30.14F
GRAND FORKS AF FAIR      53  42  67 SE7       30.13F
DEVILS LAKE    FAIR      52  39  61 SW12      30.10F
FARGO          FAIR      55  38  52 S13       30.15F
CAVALIER       FAIR      46  39  76 S7        30.11F
GRAFTON        FAIR      48  41  76 SE10      30.15S
GWINNER        SUNNY     57  39  51 MISG      30.14F
LANGDON        FAIR      50  45  81 SW13      30.09F
ROLLA          FAIR      41  43 100 SW16      30.06F
$$

CITY           SKY/WX    TMP DP  RH WIND       PRES   REMARKS
ABERDEEN       FAIR      54  36  50 SE7       30.13F
MOBRIDGE       FAIR      58  39  49 S9        30.08F
BUFFALO          N/A     50  43  77 SW6       30.01F
RAPID CITY     PTSUNNY   50  42  74 NE6       30.09S
GLASGOW        FAIR      55  28  35 W14       29.99F
SIDNEY         FAIR      51  44  77 S9        30.00F
WOLF POINT     FAIR      55  33  43 W12       30.00F
GLENDIVE       FAIR      54  34  46 W12       30.03F
MILES CITY     FAIR      51  35  54 SW9       30.06S
BAKER          FAIR      55  33  43 W13       30.04F
$$

CITY           SKY/WX    TMP DP  RH WIND       PRES   REMARKS
BILLINGS       PTSUNNY   49  35  58 SW9       30.06F
GREAT FALLS    CLOUDY    47  28  47 SW17      30.00F
REGINA         PTSUNNY   50  32  50 SW10      29.89F
ESTEVAN        CLOUDY    50  43  76 SW14      29.95F
$$




USA.gov is the U.S. government's official web portal to all federal, state and local government web resources and services.